User: anonymous   Login
Location: ????????
(38.4362°N, 22.8767°E)
Time: 20:00:12
(UTC+00:00)
Language:

Cosmos 1766 - Orbit

View from above orbital plane
View from above orbital plane
View from above satellite
View from above satellite

Ground track
Ground track

The orbit data is extracted from the following two-line orbital elements,

1 16881U 86055A   24177.62574999  .00007959  00000-0  32689-3 0  9991
2 16881  82.5002  23.4491 0010799 245.6288 114.3822 15.23997263 48085
Epoch (UTC): 25 June 2024 15:01:04
Eccentricity: 0.0010799
inclination: 82.5002°
perigee height: 486 km
apogee height: 501 km
right ascension of ascending node: 23.4491°
argument of perigee: 245.6288°
revolutions per day: 15.23997263
mean anomaly at epoch: 114.3822°
orbit number at epoch: 4808

The dashed part of the orbit path shows where the satellite is in the earth's shadow,  

DLR